Starlink 3162

operational
NORAD ID: 49411 Int'l Des: 2021-104 Owner: SPXS Country: US Constellation: starlink
LEOCIRCULAR

Über Starlink 3162

Beschreibung wird geladen...

Live-Position

3D-Globus wird geladen...

Nächste Überflüge

Höhenverlauf

Altitude vs Time

uPlot chart will show altitude changes over time

Zweizeiliger Elementsatz

1 49411U 21104D 25303.81606757 -.00000188 00000-0 62804-5 0 9993
2 49411 53.2165 82.1437 0001267 88.9326 271.1811 15.08835582219165
Epoch: 30. Okt. 2025 • Age: 12 hours

Aktueller Status

Höhe 545.5 km
Geschwindigkeit 7.60 km/s
Subsatellitenpunkt 53.21°N, 17.59°E
Startdatum 13. Nov. 2021
Alter 3.9 years
Typ internet

Technische Details

Klassifizierung Payload
Masse 290.00 kg
Trockenmasse 270.00 kg
Gesamtmasse 290.00 kg
Länge 0.20 m
Durchmesser 2.80 m
Spannweite 9.00 m
Form Box + pan
Hersteller SPXS
Bus-Typ Starlink
Phasenstatus In Orbit
Besitzer/Staat SPXS/US

Große Konstellationen

Loading constellations...